User: anonymous   Login
Location: Azul
(36.7830°S, 59.8500°W)
Time: 10:27:27
(UTC-03:00)
Language:

FO-29 - Orbit

View from above orbital plane
View from above orbital plane
View from above satellite
View from above satellite

Ground track
Ground track

The orbit data is extracted from the following two-line orbital elements,

1 24278U 96046B   21295.11447842 -.00000017  00000-0  18613-4 0  9990
2 24278  98.5521 346.2285 0350385 181.2862 178.7411 13.53106759243623
Epoch (UTC): 22 October 2021 02:44:50
Eccentricity: 0.0350385
inclination: 98.5521°
perigee height: 800 km
apogee height: 1321 km
right ascension of ascending node: 346.2285°
argument of perigee: 181.2862°
revolutions per day: 13.53106759
mean anomaly at epoch: 178.7411°
orbit number at epoch: 24362

The dashed part of the orbit path shows where the satellite is in the earth's shadow,  

DLR